Norfolk, NE

6:00 PM CDT on April 23, 2017 (GMT -0500)
Stefan Memorial

Weather History for KOFK - March, 2013

Change the Weather History Date:

Thursday, March 28, 2013

  Actual Average Record
Temperature  
Mean Temperature 41 °F 42 °F  
Max Temperature 57 °F 54 °F 87 °F (1986)
Min Temperature 24 °F 30 °F 6 °F (1926)
Degree Days  
Heating Degree Days 24 23  
Month to date heating degree days 940 790  
Since 1 July heating degree days 5861 5883  
Cooling Degree Days 0 0  
Month to date cooling degree days 0 0  
Year to date cooling degree days 0 0  
Moisture  
Dew Point 29 °F    
Average Humidity 63    
Maximum Humidity 92    
Minimum Humidity 33    
Precipitation  
Precipitation 0.00 in 0.07 in 2.41 in (1981)
Month to date precipitation 1.09 1.53  
Year to date precipitation 1.99 2.88  
Snow  
Snow 0.00 in 0.10 in - ()
Month to date snowfall 5.2 4.6  
Since 1 July snowfall 20.1 27.4  
Snow Depth 0.00 in    
Sea Level Pressure  
Sea Level Pressure 30.21 in    
Wind  
Wind Speed 7 mph (SE)    
Max Wind Speed 14 mph    
Max Gust Speed 17 mph    
Visibility 9 miles    
Events      
T = Trace of Precipitation, MM = Missing Value Source: NWS Daily Summary

Daily Weather History Graph

Daily Weather History Graph

Search for Another Location

Airport or City:

Trip Planner

Search our weather history database for the weather conditions in past years. The results will help you decide how hot, cold, wet, or windy it might be!

Date:

Astronomy

Mar. 28, 2013 Rise Set
Actual Time 7:18 AM CDT 7:51 PM CDT
Civil Twilight 6:50 AM CDT 8:19 PM CDT
Nautical Twilight 6:17 AM CDT 8:52 PM CDT
Astronomical Twilight 5:43 AM CDT 9:26 PM CDT
Moon 9:47 PM CDT (3/28) 7:45 AM CDT (3/28)
Length of Visible Light 13h 28m
Length of Day
12h 32m
Full, 98% of the Moon is Illuminated
Mar 28
Full
Apr 2
Last Quarter
Apr 10
New
Apr 18
First Quarter
Apr 25
Full

Hourly Weather History & Observations

Time (CDT) Temp. Windchill Dew Point Humidity Pressure Visibility Wind Dir Wind Speed Gust Speed Precip Events Conditions
12:56 AM 37.0 °F 30.4 °F 28.9 °F 73% 30.22 in 10.0 mi SE 9.2 mph - N/A   Clear
1:56 AM 36.0 °F 28.5 °F 28.9 °F 76% 30.22 in 10.0 mi SE 10.4 mph - N/A   Clear
2:56 AM 33.1 °F 26.1 °F 28.0 °F 82% 30.22 in 10.0 mi SE 8.1 mph - N/A   Clear
3:56 AM 30.9 °F - 27.0 °F 85% 30.22 in 10.0 mi Calm Calm - N/A   Clear
4:56 AM 28.9 °F 25.2 °F 26.1 °F 89% 30.22 in 10.0 mi SE 3.5 mph - N/A   Clear
5:56 AM 28.0 °F - 25.0 °F 88% 30.22 in 7.0 mi Calm Calm - N/A   Clear
6:56 AM 28.0 °F - 25.0 °F 88% 30.23 in 7.0 mi Calm Calm - N/A   Clear
7:56 AM 27.0 °F 23.0 °F 24.1 °F 89% 30.24 in 5.0 mi ESE 3.5 mph - N/A   Clear
8:56 AM 34.0 °F 28.0 °F 28.9 °F 82% 30.25 in 7.0 mi SE 6.9 mph - N/A   Clear
9:56 AM 41.0 °F 37.1 °F 30.9 °F 67% 30.24 in 10.0 mi SE 5.8 mph - N/A   Clear
10:56 AM 45.0 °F 41.2 °F 32.0 °F 60% 30.24 in 10.0 mi South 6.9 mph - N/A   Clear
11:56 AM 50.0 °F - 32.0 °F 50% 30.22 in 10.0 mi SSE 8.1 mph - N/A   Scattered Clouds
12:56 PM 50.0 °F - 30.9 °F 48% 30.22 in 10.0 mi South 10.4 mph - N/A   Overcast
1:56 PM 52.0 °F - 32.0 °F 47% 30.22 in 10.0 mi SSE 8.1 mph - N/A   Overcast
2:56 PM 53.1 °F - 30.0 °F 41% 30.19 in 10.0 mi SSE 11.5 mph - N/A   Overcast
3:56 PM 57.0 °F - 28.9 °F 34% 30.17 in 10.0 mi SE 13.8 mph - N/A   Mostly Cloudy
4:56 PM 55.9 °F - 28.0 °F 34% 30.17 in 10.0 mi ESE 8.1 mph - N/A   Clear
5:56 PM 55.9 °F - 28.9 °F 36% 30.18 in 10.0 mi SE 8.1 mph - N/A   Mostly Cloudy
6:56 PM 53.1 °F - 28.9 °F 40% 30.19 in 10.0 mi East 8.1 mph - N/A   Overcast
7:56 PM 48.9 °F - 30.0 °F 48% 30.20 in 10.0 mi ESE 5.8 mph - N/A   Overcast
8:56 PM 45.0 °F 40.1 °F 30.0 °F 56% 30.19 in 10.0 mi SE 9.2 mph - N/A   Clear
9:56 PM 42.1 °F 37.1 °F 30.0 °F 62% 30.20 in 10.0 mi ESE 8.1 mph - N/A   Clear
10:56 PM 39.9 °F 34.5 °F 30.0 °F 68% 30.20 in 10.0 mi ESE 8.1 mph - N/A   Partly Cloudy
11:56 PM 39.9 °F 33.9 °F 30.0 °F 68% 30.20 in 10.0 mi SE 9.2 mph - N/A   Clear